Weather Roundup
Issued by NWS Chicago, IL

Home | Current Version | Previous Version | Graphics & Text | Print | Product List | Glossary On
Versions: 1 2 3 4 5 6 7 8 9 10 11 12 13 14 15 16 17 18 19 20 21 22 23 24 25 26 27 28 29 30 31 32 33 34 35 36 37 38 39 40 41 42 43 44 45 46 47 48 49 50
000
NZUS59 KLOT 231710
HRRLOT

CHICAGO AREA WEATHER ROUNDUP
NATIONAL WEATHER SERVICE CHICAGO/ROMEOVILLE IL
1200 PM CDT TUE SEP 23 2014

NOTE: "FAIR" INDICATES FEW OR NO CLOUDS BELOW 12,000 FEET WITH NO
SIGNIFICANT WEATHER AND/OR OBSTRUCTIONS TO VISIBILITY.

* THESE STATIONS ARE NOT UNDER NWS QUALITY CONTROL. THEY ALSO MAY NOT
  REPORT WEATHER SUCH AS PRECIPITATION OR FOG.

ILZ005-006-012>014-019>023-231800-
NORTHEAST ILLINOIS

CITY           SKY/WX    TMP DP  RH WIND       PRES   REMARKS
OHARE          SUNNY     64  46  52 SW7       30.34S
MIDWAY         MOSUNNY   70  49  47 W7        30.35S
AURORA         SUNNY     68  47  46 S7        30.35F
LANSING*       SUNNY     68  48  49 W5        30.36S
JOLIET*        SUNNY     68  47  47 S6        30.36F
WAUKEGAN       SUNNY     68  49  50 VRB5      30.34R
DUPAGE AIRPORT SUNNY     70  49  47 SW7       30.34F
WHEELING       SUNNY     70  47  43 SW6       30.36R
KANKAKEE*      SUNNY     69  49  49 CALM      30.36F
MORRIS*        SUNNY     69  49  47 S3        30.35S
LEWIS AIRPORT* SUNNY     67  46  45 CALM      30.35F
NORTHERLY IS     N/A     69  45  41 S3          N/A
$$

WIZ051-052-058>065-066-070>072-231800-
SOUTHEAST WISCONSIN

CITY           SKY/WX    TMP DP  RH WIND       PRES   REMARKS
MILWAUKEE      MOSUNNY   70  49  47 SW7       30.32S
KENOSHA*       SUNNY     69  51  52 SW8       30.34S
RACINE*        SUNNY     70  50  49 W7        30.34S
BURLINGTON     SUNNY     69  46  43 W3        30.34S
WAUKESHA       SUNNY     66  48  52 SW5       30.34R
WEST BEND      SUNNY     70  48  46 W8        30.31S
$$

INZ001>003-010>013-019-020-231800-
NORTHWEST INDIANA

CITY           SKY/WX    TMP DP  RH WIND       PRES   REMARKS
GARY*          SUNNY     66  46  48 VRB5      30.36
MICHIGAN CITY* NOT AVBL
RENSSELAER*    NOT AVBL
VALPARAISO     SUNNY     68  46  45 CALM      30.36F
$$

LMZ740>746-231800-
SOUTHERN LAKE MICHIGAN

STATION/POSITION TIME  SKY/WX   TEMP WIND        PRES    VSBY
                                AIR  DIR/SP/G
                 (UTC)          (F)  (DEG/KT/KT) (MB)    (MI)
HARRISON CRIB    NOT AVBL
BURNHAM HARBOR   1700            69  180/  2/  8   N/A
CALUMET HARBOR   1700            67  210/  5/  8 1026.4
BURNS HARBOR     NOT AVBL
MICHIGAN CITY    NOT AVBL
$$

ABBREVIATIONS USED IN REMARKS
   TC - TEMPERATURE IN CELSIUS
  WCI - WIND CHILL INDEX
   HX - HEAT INDEX
  VSB - VISIBILITY
$$



USA.gov is the U.S. government's official web portal to all federal, state and local government web resources and services.